Temp
-13 -14 -13 -13 -13 -13 -12 -12 -13 -13 -13 -13 -13 -13 -13 -13 -13 -12 -12 -12 -11 -11 -11 -11 -11 -11 -11 -11 -11 -11 -11 -11
-14 -14 -14 -13 -13 -13 -12 -12 -12 -12 -13 -13 -13 -14 -14 -13 -13 -12 -12 -12 -12 -12 -11 -11 -11 -11 -11 -11 -11 -12 -12 -12
-13 -14 -14 -13 -13 -13 -12 -13 -12 -13 -14 -13 -13 -14 -13 -13 -13 -13 -12 -13 -12 -12 -12 -12 -12 -12 -12 -12 -12 -12 -12 -12
-14 -14 -14 -14 -13 -14 -13 -13 -13 -14 -13 -13 -13 -14 -13 -13 -14 -13 -13 -13 -12 -12 -12 -12 -12 -12 -12 -12 -12 -12 -12 -12
-14 -13 -14 -14 -14 -14 -14 -13 -13 -13 -13 -12 -13 -14 -14 -14 -14 -13 -13 -13 -13 -13 -12 -13 -13 -13 -12 -12 -12 -12 -12 -12
-14 -14 -13 -13 -13 -13 -13 -13 -13 -13 -13 -12 -13 -13 -14 -14 -13 -13 -13 -13 -13 -13 -13 -13 -13 -13 -13 -13 -13 -13 -13 -13
-15 -14 -14 -13 -13 -12 -12 -12 -13 -13 -13 -13 -13 -13 -13 -14 -14 -13 -13 -14 -14 -13 -13 -13 -13 -13 -13 -12 -12 -12 -13 -13
-16 -15 -15 -13 -13 -13 -12 -12 -12 -12 -13 -13 -13 -13 -13 -14 -14 -14 -13 -13 -13 -13 -13 -13 -13 -13 -13 -12 -12 -12 -12 -13
-17 -16 -15 -14 -13 -13 -13 -13 -13 -13 -13 -13 -13 -13 -13 -13 -14 -14 -13 -13 -14 -13 -13 -13 -13 -12 -13 -12 -12 -12 -12 -13
-18 -17 -16 -15 -14 -14 -13 -13 -14 -14 -14 -14 -14 -14 -13 -14 -13 -14 -14 -14 -14 -14 -13 -13 -13 -13 -13 -13 -13 -13 -12 -12
-19 -19 -17 -16 -15 -14 -14 -14 -15 -14 -15 -14 -14 -14 -15 -15 -14 -14 -14 -14 -15 -14 -13 -13 -13 -13 -13 -13 -13 -13 -12 -13
-20 -20 -19 -18 -17 -16 -16 -15 -15 -15 -15 -15 -15 -15 -15 -15 -15 -15 -15 -15 -14 -15 -14 -13 -13 -13 -13 -13 -13 -13 -13 -13
-20 -20 -19 -19 -18 -18 -17 -16 -16 -16 -16 -16 -16 -16 -16 -15 -15 -15 -15 -15 -15 -15 -14 -14 -13 -13 -13 -13 -13 -14 -13 -14
-20 -20 -19 -18 -18 -18 -18 -18 -17 -17 -17 -17 -16 -16 -16 -16 -16 -16 -16 -16 -16 -15 -15 -14 -14 -14 -14 -13 -13 -13 -13 -14
-20 -20 -19 -19 -19 -19 -19 -18 -18 -18 -18 -18 -18 -17 -16 -16 -16 -16 -16 -16 -16 -15 -15 -14 -14 -14 -14 -14 -14 -13 -13 -14
-20 -20 -20 -20 -19 -19 -18 -18 -19 -18 -18 -18 -18 -17 -17 -16 -16 -17 -17 -17 -16 -16 -15 -15 -15 -14 -14 -14 -14 -14 -14 -14
-20 -20 -20 -20 -19 -19 -19 -19 -19 -19 -19 -19 -19 -18 -18 -17 -16 -16 -16 -16 -16 -16 -16 -16 -15 -15 -14 -14 -15 -14 -14 -14
-20 -20 -20 -20 -20 -20 -20 -20 -20 -20 -19 -19 -19 -19 -19 -18 -17 -17 -16 -16 -16 -16 -16 -16 -16 -15 -15 -15 -15 -15 -15 -15
-20 -19 -20 -19 -19 -19 -19 -19 -20 -20 -20 -20 -20 -19 -19 -19 -19 -18 -17 -17 -16 -16 -16 -16 -16 -16 -16 -15 -15 -15 -15 -15
Height
5791 5795 5799 5802 5807 5809 5813 5815 5817 5820 5824 5828 5832 5835 5838 5841 5843 5845 5848 5850 5852 5854 5855 5856 5858 5860 5863 5866 5867 5867 5866 5866
5779 5784 5788 5793 5798 5802 5807 5810 5813 5815 5819 5822 5827 5831 5833 5834 5838 5840 5843 5845 5848 5851 5851 5852 5853 5854 5857 5859 5862 5864 5864 5863
5769 5776 5781 5785 5789 5795 5798 5803 5806 5810 5813 5817 5821 5823 5824 5828 5832 5836 5838 5840 5842 5843 5846 5847 5849 5850 5851 5852 5855 5858 5860 5861
5756 5765 5772 5777 5783 5788 5793 5799 5798 5801 5804 5808 5814 5815 5818 5822 5826 5829 5831 5833 5836 5838 5839 5841 5843 5845 5847 5848 5848 5849 5852 5854
5742 5749 5756 5767 5772 5778 5786 5790 5789 5793 5794 5792 5805 5810 5814 5818 5819 5820 5825 5826 5828 5832 5833 5835 5836 5838 5842 5842 5844 5845 5846 5846
5728 5738 5744 5750 5756 5764 5773 5778 5780 5784 5787 5781 5793 5801 5807 5810 5812 5815 5817 5820 5820 5823 5826 5828 5830 5832 5834 5837 5838 5839 5840 5841
5716 5724 5735 5742 5748 5754 5762 5764 5767 5771 5775 5782 5787 5793 5799 5802 5804 5808 5811 5814 5815 5817 5819 5821 5824 5825 5826 5828 5830 5832 5833 5834
5703 5712 5722 5734 5740 5747 5753 5756 5758 5763 5770 5774 5781 5785 5788 5794 5798 5801 5804 5807 5810 5813 5814 5816 5818 5819 5820 5821 5821 5823 5824 5826
5691 5700 5709 5722 5732 5737 5742 5748 5753 5758 5762 5768 5772 5777 5781 5783 5788 5792 5797 5800 5804 5806 5809 5811 5813 5814 5814 5815 5814 5815 5816 5816
5679 5689 5697 5710 5722 5729 5734 5738 5744 5751 5754 5759 5763 5769 5774 5778 5780 5782 5787 5791 5794 5798 5801 5804 5805 5806 5807 5808 5808 5808 5807 5806
5671 5678 5688 5698 5709 5719 5725 5730 5735 5742 5746 5751 5755 5760 5765 5769 5773 5777 5779 5780 5784 5789 5793 5796 5798 5799 5800 5801 5802 5802 5801 5798
5664 5672 5680 5688 5697 5706 5714 5722 5727 5731 5735 5741 5747 5751 5756 5760 5765 5769 5772 5773 5776 5780 5785 5787 5790 5791 5792 5793 5794 5794 5795 5794
5657 5666 5673 5681 5687 5695 5703 5713 5718 5722 5725 5730 5736 5741 5747 5751 5755 5759 5761 5766 5768 5771 5774 5777 5781 5783 5783 5784 5785 5786 5787 5787
5648 5658 5666 5671 5677 5684 5692 5700 5708 5713 5716 5720 5724 5730 5735 5739 5743 5747 5751 5755 5759 5763 5766 5768 5771 5772 5774 5776 5776 5776 5778 5778
5642 5651 5657 5663 5668 5675 5681 5686 5694 5700 5706 5710 5713 5717 5721 5726 5731 5736 5741 5744 5748 5753 5757 5760 5761 5764 5766 5768 5768 5768 5768 5769
5636 5646 5653 5658 5662 5668 5673 5677 5683 5688 5691 5697 5701 5705 5711 5715 5719 5723 5727 5732 5737 5741 5745 5750 5752 5754 5756 5757 5758 5758 5759 5760
5634 5643 5649 5650 5653 5658 5664 5668 5673 5677 5680 5684 5689 5692 5697 5703 5707 5712 5717 5721 5724 5728 5733 5738 5741 5743 5745 5745 5746 5747 5748 5749
5635 5640 5641 5642 5648 5652 5654 5658 5661 5663 5667 5672 5676 5679 5683 5687 5693 5699 5705 5709 5713 5718 5722 5725 5729 5731 5733 5733 5734 5735 5736 5738
5630 5633 5635 5640 5643 5645 5645 5645 5646 5649 5653 5656 5661 5666 5670 5675 5679 5685 5690 5695 5700 5706 5710 5712 5716 5719 5719 5720 5721 5722 5725 5727
Wind_Speed
36 34 34 34 31 30 29 29 31 30 33 36 36 34 29 28 28 26 26 23 22 22 23 23 23 23 21 19 15 14 16 18
44 42 38 37 35 34 32 33 30 32 30 29 34 32 33 38 36 32 30 27 24 22 25 25 25 25 24 23 20 16 16 17
49 44 42 39 38 37 38 34 36 35 35 35 32 34 37 35 36 39 35 30 29 27 25 23 24 24 25 26 24 24 21 19
55 49 44 42 40 41 40 35 39 39 38 39 34 34 31 26 25 27 30 41 38 33 28 27 25 25 27 28 27 25 26 24
62 56 47 43 42 44 41 40 44 43 42 38 36 33 30 29 32 32 28 30 42 39 35 33 32 32 28 29 28 27 27 28
66 62 59 52 49 49 48 47 47 44 45 41 33 32 33 32 33 33 29 25 22 27 40 39 35 33 33 34 35 37 34 34
66 65 62 58 55 53 51 53 53 50 45 40 39 37 37 38 38 34 31 27 19 17 19 24 35 33 35 35 32 33 38 38
67 67 64 60 57 55 54 56 57 54 50 47 44 43 41 40 40 38 35 33 26 23 25 24 23 22 27 24 27 34 39 41
66 68 68 65 59 57 57 57 59 55 51 49 46 45 45 45 42 40 37 34 31 30 30 27 24 25 21 20 20 21 18 30
64 67 68 64 64 61 60 59 58 53 55 53 50 48 48 46 45 42 39 37 37 34 31 30 30 26 28 27 25 20 21 21
61 63 64 62 59 60 58 62 57 55 52 52 52 50 47 46 44 43 41 37 38 37 33 31 31 29 30 28 24 24 23 17
61 61 58 58 59 59 57 51 52 56 56 52 51 48 47 46 44 43 40 38 39 37 35 33 30 31 30 29 27 27 23 22
58 58 61 57 57 55 55 56 57 53 51 52 52 51 48 45 45 44 46 44 38 40 40 36 33 34 33 31 33 35 32 26
61 62 61 56 54 53 51 54 48 52 50 50 54 52 50 49 48 46 44 41 37 42 41 37 35 36 34 35 34 35 37 37
58 56 58 58 58 55 55 54 48 50 52 49 51 53 55 55 53 48 47 44 38 36 40 39 38 37 37 37 37 37 36 37
54 60 63 64 63 54 47 48 44 42 46 43 49 54 55 56 54 54 52 49 45 45 45 44 42 42 43 42 43 42 41 40
30 34 38 68 60 61 62 56 51 51 50 46 48 52 55 59 60 59 59 56 53 50 47 45 44 45 46 45 45 44 45 45
25 34 34 25 31 44 48 53 51 53 55 58 57 53 55 57 61 62 61 57 56 52 49 50 47 47 47 48 48 47 47 46
27 33 31 38 42 45 48 53 52 59 60 62 63 64 55 53 54 60 62 60 57 54 52 51 53 51 51 51 52 52 51 50
Wind_Direction
236 234 234 236 235 237 234 230 231 231 231 231 233 234 237 236 234 234 233 236 235 230 236 237 241 246 250 253 264 286 301 307
235 236 232 233 235 236 236 234 233 233 237 239 236 238 238 234 232 232 234 235 239 243 241 239 239 243 252 258 263 266 279 290
231 234 236 230 229 233 234 232 231 229 227 235 235 232 237 242 241 236 238 240 239 241 245 248 249 250 250 256 262 267 266 274
235 229 231 234 230 232 234 229 234 232 230 225 227 232 239 245 251 250 249 239 243 243 244 250 251 253 254 255 257 262 271 272
240 230 224 230 228 230 233 230 233 234 235 216 221 225 234 239 245 255 254 233 241 246 248 248 255 254 253 258 260 262 265 270
238 237 232 224 225 226 224 227 234 238 235 217 220 227 235 238 244 250 252 243 244 242 245 246 248 254 257 255 262 264 264 263
235 238 235 229 225 227 226 228 229 230 232 229 237 230 232 235 240 245 246 250 267 268 265 255 244 245 250 258 265 269 267 267
229 234 236 231 227 225 227 229 232 233 232 234 233 236 233 235 239 242 244 249 244 245 257 257 251 247 253 259 274 270 263 262
223 229 234 232 228 227 226 227 231 233 235 235 236 236 239 240 236 241 244 247 250 248 249 252 245 239 261 254 278 282 294 261
221 226 233 234 229 229 229 229 228 228 232 232 233 237 240 243 247 242 240 243 248 248 250 248 250 250 248 256 264 270 280 289
215 224 230 233 231 224 227 228 231 230 231 233 234 236 239 243 250 254 256 244 245 251 249 246 249 252 251 257 260 272 287 286
212 220 226 232 235 230 226 226 228 231 233 234 235 236 240 242 244 249 256 257 253 246 250 247 247 248 252 252 254 262 271 273
210 220 227 234 237 241 238 237 239 235 234 234 235 237 239 241 244 246 249 246 241 250 249 249 244 244 246 250 249 253 258 258
212 222 230 239 243 246 248 246 239 239 239 240 238 235 235 235 239 243 245 247 244 245 252 251 239 240 243 246 251 252 254 255
213 218 226 238 245 247 249 246 239 238 240 244 241 236 232 230 231 237 241 240 237 242 238 239 241 242 245 249 253 256 257 260
212 226 233 241 246 242 238 237 246 243 237 238 240 239 238 235 234 232 233 234 232 233 230 234 240 245 249 251 252 255 258 261
207 218 238 241 237 243 244 243 252 259 244 242 249 243 238 235 236 238 238 237 235 235 237 238 239 241 244 248 251 254 255 256
252 248 265 265 248 251 250 251 254 259 252 247 246 243 245 239 236 236 238 238 238 239 239 239 239 240 242 246 250 253 254 258
256 267 257 253 257 262 259 251 257 255 251 254 251 248 246 242 242 237 235 236 237 239 240 240 240 240 244 246 250 252 254 257